[keps] orb10364.2l.amsat

Ray Hoad ray.hoad at mypbmail.com
Thu Dec 30 18:28:30 PST 2010


SB KEPS @ AMSAT  $ORB10364.N
2Line Orbital Elements 10364.AMSAT

HR AMSAT ORBITAL ELEMENTS FOR AMATEUR SATELLITES IN NASA FORMAT
FROM WA5QGD FORT WORTH,TX December 30, 2010
Send Subscribe/unsubscribe to KEPS at http://www.amsat.org/mailman/listinfo/keps
BID: ORB10364.N

DECODE 2-LINE ELSETS WITH THE FOLLOWING KEY:
1 AAAAAU 00  0  0 BBBBB.BBBBBBBB  .CCCCCCCC  00000-0  00000-0 0  DDDZ
2 AAAAA EEE.EEEE FFF.FFFF GGGGGGG HHH.HHHH III.IIII JJ.JJJJJJJJKKKKKZ
KEY: A-CATALOGNUM B-EPOCHTIME C-DECAY D-ELSETNUM E-INCLINATION F-RAAN
G-ECCENTRICITY H-ARGPERIGEE I-MNANOM J-MNMOTION K-ORBITNUM Z-CHECKSUM

TO ALL RADIO AMATEURS BT

AO-07
1 07530U 74089B   10363.56819190 -.00000027  00000-0  10000-3 0 09663
2 07530 101.3952 011.8004 0011819 251.7267 108.2518 12.53580706652939
FO-29
1 24278U 96046B   10363.92836564 -.00000020  00000-0  17476-4 0 04801
2 24278 098.5206 166.0798 0350700 336.2398 022.2885 13.52955477709574
SO-33
1 25509U 98061B   10363.60988318  .00000096  00000-0  50170-5 0 08724
2 25509 031.4324 123.3800 0353850 198.7235 160.0074 14.28352860636019
RS-22
1 27939U 03042A   10364.62611429  .00000085  00000-0  25067-4 0  8563
2 27939 097.8644 221.4683 0013881 154.2896 205.8998 14.63494177387681
VO-52
1 28650U 05017B   10363.82430164  .00000072  00000-0  15527-4 0  6816
2 28650 097.6668 049.3430 0027022 359.1722 000.9469 14.81879865305665
SO-67
1 35870U 09049F   10364.55878003  .00000585  00000-0  29174-4 0  4265
2 35870 097.3065 048.2222 0004244 113.5943 026.3649 15.21261848 71304
HO-68
1 36122U 09072B   10364.80504183 -.00000045  00000-0  00000 0 0  9815
2 36122 100.4430 063.0034 0007186 247.5100 112.5255 13.16283564 50088
UO-11
1 14781U 84021B   10364.85227830  .00000099  00000-0  20180-4 0  4319
2 14781 098.0306 056.8900 0008538 329.8910 030.1834 14.79874207440896
AO-16
1 20439U 90005D   10364.82754450  .00000027  00000-0  25753-4 0   807
2 20439 098.3618 315.2806 0010288 306.7504 053.2746 14.31889610 93521
LO-19
1 20442U 90005G   10363.81572679  .00000136  00000-0  66174-4 0 09903
2 20442 098.3237 319.3216 0010967 302.0997 057.9126 14.32118289093555
AO-27
1 22825U 93061C   10364.44405325  .00000175  00000-0  85577-4 0  7121
2 22825 098.5113 307.5591 0009250 054.6851 305.5225 14.29321982900083
IO-26
1 22826U 93061D   10364.82416340  .00000031  00000-0  28968-4 0  4492
2 22826 098.5053 308.4617 0009711 048.7040 311.4994 14.29580391900251
GO-32
1 25397U 98043D   10364.53331045  .00000141  00000-0  80508-4 0  3690
2 25397 098.3186 001.2075 0002083 070.5535 289.5889 14.23193646647977
NO-44
1 26931U 01043C   10364.65137767  .00000160  00000-0  94460-4 0  6435
2 26931 067.0534 057.7850 0006573 274.9372 085.0979 14.29628584482837
SO-50
1 27607U 02058C   10363.79449620  .00000156  00000-0  46264-4 0 03555
2 27607 064.5574 122.3388 0053111 002.6722 357.4637 14.71624651431169
CO-55
1 27844U 03031E   10364.09038789  .00000050  00000-0  43287-4 0   107
2 27844 098.7073 010.2456 0009596 330.9641 029.0991 14.20757643388901
CO-57
1 27848U 03031J   10363.51496051  .00000010  00000-0  24898-4 0 09592
2 27848 098.7131 008.8156 0009694 337.1184 022.9557 14.20544015388772
AO-51
1 28375U 04025K   10363.86232249  .00000037  00000-0  23850-4 0  8592
2 28375 098.0781 346.3989 0082837 223.6874 135.7737 14.40717430341688
CP3
1 31129U 07012N   10364.57143916 -.00000058  00000-0 -26572-5 0  7604
2 31129 097.9181 033.4001 0102185 345.1636 014.6553 14.52355310196367
CO-65
1 32785U 08021C   10363.19159920 -.00000099  00000-0 -58795-5 0 08757
2 32785 097.8731 065.1695 0015253 014.3546 345.8094 14.81794607144361
KKS-1
1 33493U 09002B   10364.64350585  .00000553  00000-0  77862-4 0  1756
2 33493 098.1043 126.0993 0019080 223.3225 136.6491 14.81260927104562
SOHLA-1
1 33496U 09002E   10364.87392391 -.00000064  00000-0 -24452-5 0  2944
2 33496 098.0684 111.5599 0005742 305.4353 054.6303 14.69544504103764
TISAT-1
1 36799U 10035E   10364.63505420  .00000351  00000-0  53228-4 0  4495
2 36799 098.1244 066.0794 0016711 100.8419 259.4680 14.80275788 25376
STUDSAT
1 36801U 10035G   10363.81251431  .00000921  00000-0  12904-3 0 01190
2 36801 098.1265 065.1163 0014877 091.6839 268.6076 14.79909341025241
RAX
1 37223U 0        10362.43615929  .00000292  00000-0  49033-4 0 00401
2 37223 071.9728 055.5754 0022715 245.7465 114.1313 14.77205443005673
OOREOS
1 37224U 10062C   10361.49649035  .00000232  00000-0  40853-4 0 00417
2 37224 071.9733 057.6930 0021329 245.9311 113.9603 14.76870385005526
FASTSAT
1 37225U 10062D   10339.55430316  .00000041  00000-0  13962-4 0 00217
2 37225 071.9720 106.1057 0019965 280.4841 079.4053 14.76483442002287
FAST1-2
1 37227U 0        10362.52513116 -.00000033  00000-0  33883-5 0 00401
2 37227 071.9728 055.4849 0018931 240.9281 119.0008 14.76379440005672
NOAA-10
1 16969U 86073A   10364.49161635 -.00000097  00000-0 -21594-4 0  3362
2 16969 098.6381 031.4212 0012441 002.3609 357.7640 14.27438602263586
NOAA-11
1 19531U 88089A   10364.26100546 -.00000266  00000-0 -11506-3 0  3435
2 19531 098.7601 089.8820 0010842 314.3023 045.7255 14.14899052148866
NOAA-12
1 21263U 91032A   10364.37165954  .00000023  00000-0  28718-4 0  8335
2 21263 098.7592 017.4473 0012001 321.2696 038.7625 14.25675952 20352
MET-3/5
1 21655U 91056A   10364.63546277  .00000051  00000-0  10000-3 0    18
2 21655 082.5562 169.8466 0012785 214.5761 145.4485 13.17027196931537
MET-2/21
1 22782U 93055A   10364.76701834  .00000021  00000-0  58024-5 0  9787
2 22782 082.5476 096.5078 0021603 208.0024 151.9980 13.83653861875263
OKEAN-4
1 23317U 94066A   10364.81925461  .00000186  00000-0  19915-4 0  4349
2 23317 082.5397 170.3206 0021134 317.5886 042.3687 14.82915485875591
NOAA-14
1 23455U 94089A   10364.39016622  .00000049  00000-0  49306-4 0  3221
2 23455 098.8651 083.6315 0010054 042.8952 317.3006 14.13803740825224
NOAA-15
1 25338U 98030A   10364.28507701  .00000200  00000-0  10448-3 0  6512
2 25338 098.6394 347.8961 0009992 220.8773 139.1691 14.24875619656675
RESURS
1 25394U 98043A   10364.42821787 -.00000018  00000-0  98417-5 0  6878
2 25394 098.2984 011.7570 0002114 029.4398 330.6902 14.24219919648282
FENGYUN1
1 25730U 99025A   10363.47005112  .00000248  00000-0  16950-3 0 02211
2 25730 098.8036 323.5357 0021649 067.8920 292.4545 14.08487844599175
OKEAN-0
1 25860U 99039A   10363.82977545  .00000066  00000-0  17557-4 0 01905
2 25860 097.8606 330.1819 0001391 107.4375 252.6985 14.73696437615712
NOAA-16
1 26536U 00055A   10364.43007166 -.00000180  00000-0 -72259-4 0  1300
2 26536 099.1586 026.4064 0010998 143.7256 216.4664 14.12589780529537
NOAA-17
1 27453U 02032A   10364.57035068  .00000200  00000-0  10463-3 0  1234
2 27453 098.4052 046.8295 0010737 284.4896 075.5095 14.24223568442653
NOAA-18
1 28654U 05018A   10364.52755912 -.00000034  00000-0  63064-5 0  6099
2 28654 098.9757 310.4576 0013824 217.6454 142.3731 14.11422165289136
NOAA-19
1 33591U 09005A   10364.55856501 -.00000087  00000-0 -24463-4 0  8038
2 33591 098.8103 302.7004 0015013 093.1000 267.1891 14.11114608 97604
HUBBLE
1 20580U 90037B   10363.52608847  .00000490  00000-0  24543-4 0  6933
2 20580 028.4703 044.4992 0003444 119.8902 240.1995 15.01127167934139
ISS
1 25544U 98067A   10364.88164388  .00014768  00000-0  11343-3 0  5548
2 25544 051.6475 303.6861 0005372 088.8434 010.5621 15.72305098694418
CO-58
1 28895U 05043F   10363.65428817  .00000132  00000-0  36846-4 0 07645
2 28895 097.9890 241.3532 0018663 035.2728 324.9684 14.59986358275500
FALCON
1 30776U 07006E   10363.93356219  .00000796  00000-0  59390-4 0 00080
2 30776 035.4345 295.5704 0000795 024.4426 335.6328 15.04035956209542
MAST
1 31126U 07012K   10364.60664372  .00000101  00000-0  33396-4 0   475
2 31126 097.9149 036.2086 0094464 336.0774 023.6065 14.53658984196591
CAPE1
1 31130U 07012P   10364.57150695  .00000075  00000-0  27946-4 0   681
2 31130 097.9164 033.2121 0102511 345.5667 014.2590 14.52271777196161
COMPASS
1 32787U 08021E   10363.22953825  .00000577  00000-0  79119-4 0 08693
2 32787 097.8713 065.0681 0016162 014.5871 345.5763 14.82094107144381
AAUSAT2
1 32788U 08021F   10363.61794695  .00000647  00000-0  87547-4 0 08596
2 32788 097.8707 065.6233 0015806 014.1173 346.0508 14.82253065144450
DO-64
1 32789U 08021G   10363.80308557  .00000577  00000-0  78279-4 0 08758
2 32789 097.8796 066.5281 0015651 011.8518 348.3072 14.82515526144484
CO-66
1 32791U 08021J   10364.22733439  .00000547  00000-0  75812-4 0  8600
2 32791 097.8724 066.0330 0016537 009.7437 350.4088 14.81843709144485
RS-30
1 32953U 08025A   10364.28158538  .00000010  00000-0  00000 0 0  3445
2 32953 082.5025 267.7373 0019867 036.4521 323.7910 12.43010045118109
TACSAT-3
1 35001U 09028A   10363.78044915  .00005853  00000-0  12849-3 0 04868
2 35001 040.4545 117.2748 0022524 026.0439 334.1505 15.44203773090851
PHARMSAT
1 35002U 09028B   10363.68257296  .00005090  00000-0  11128-3 0  4352
2 35002 040.4685 115.3864 0024359 028.8256 331.3902 15.44474909 90862
HAWKSAT1
1 35003U 09028C   10364.53112072  .00015442  00000-0  26494-3 0  4747
2 35003 040.4570 097.1915 0022744 059.9209 300.3877 15.50488778 91144
CP6
1 35004U 09028D   10364.49046778  .00018346  00000-0  29190-3 0  4766
2 35004 040.4584 094.1665 0022436 065.0957 295.2273 15.52511343 91166
AEROCUB3
1 35005U 09028E   10364.57518968  .00842931  32738-3  16900-2 0  5947
2 35005 040.4559 065.0351 0020548 091.4613 268.8519 15.98453973 91491
METEOR-M
1 35865U 09049A   10364.82289187  .00000176  00000-0  10000-3 0  9693
2 35865 098.7321 056.9377 0002625 141.6013 218.5286 14.21833926 66662
RS-38
1 35869U 09049E   10364.63183949  .00000177  00000-0  10000-3 0  9821
2 35869 098.7304 056.7893 0004666 148.3558 211.7874 14.21997055 66643
/EX




More information about the Keps mailing list